Simultaneous Nadir Overpasses (SNOs) Predictions

Prediction of SNOs over PacNW region [( 10.00, 139.50) to ( 22.70, 165.60)] between AQUA and NPP Satellites:

Table of predicted SNOs over PacNW region for the next 30.0 days since TLE Epoch: 4/26/2013
Index Date (AQUA) Time (AQUA) AQUA Lat,Lon Date (NPP) Time (NPP) NPP Lat,Lon Distance(km) Time Diff (sec)
1 04/27/2013 15:11:16 21.46, 159.44 04/27/2013 15:10:56 21.97, 156.79 280.19 20
2 05/05/2013 16:00:20 22.61, 147.37 05/05/2013 16:01:23 23.29, 144.43 310.70 63
3 05/13/2013 15:10:45 22.58, 159.77 05/13/2013 15:10:44 23.10, 157.08 281.78 1
4 05/21/2013 15:59:58 22.59, 147.47 05/21/2013 16:01:28 23.26, 144.44 319.07 90




NCC Satellite Simultaneous Nadir Overpasses (SNOs) Prediction Service
